Location: Bonningues
(50.7927°N, 2.0150°E)
Time: 05:59:28
(UTC+00:00)

SL-27 R/B - Pass Details

Date: 08 August 2020
Orbit: 419 x 471 km, 74.7° (Epoch: 23 September)

Event Time Altitude Azimuth Distance (km) Brightness Sun altitude
Exits shadow 22:53:08 55° 304° (NW) 516 2.8 -21.9°
Drops below altitude 10° 22:56:18 10° 15° (NNE) 1,516 5.9 -22.1°
Sets 22:58:23 0° 20° (NNE) 2,384 6.9 -22.2°
